H2SAT (HEINRICH HERTZ)

Last updated on Sat Jan 17 2026 00:02:50 GMT+0000 (Coordinated Universal Time)

1 57213U 23093A 26015.87227972 .00000020 00000+0 00000+0 0 9993 2 57213 0.0308 94.5241 0000723 242.2178 93.2810 1.00272116 9387
UTC large
Height (km)
Speed (km/s)
/
Latitude / Longitude
Inclination (degrees)
Orbital Period (minutes)
Azimuth
Elevation
Range (km)
Doppler Factor

Next 0 passes for location: London (51.5072 / 0.1276)

Sorry there are no passes over London.